BLOCK DM-SL R/B, 44904

Orbit data source: Space-Track

BLOCK DM-SL R/B, 44904 is space debris in GEO originally from a launch on Tue, 24 Dec 2019 UTC launched from the Tyuratam Missile And Space Complex (TTMTR). Debris objects in space refer to the collection of defunct objects orbiting the Earth. Examples of debris include non-operational satellites, rocket bodies, and fragments generated from explosions, collisions, or faulty payload assembly.

Loading next visibility...
Identifier
44904, 2019-095B
Orbit
GEO
Country
Flag of CISCIS
Related business
Manufacturer
RKKE
Mission
Spacecraft
Bus & Motor
BLOK DM2, 11D58M
Mass
2,440 kg wet, 2,440 kg dry
Launch date (UTC)
2019-12-24 (6 years ago)
Launch vehicle
Unknown
Launch site
Tyuratam Missile And Space Complex (TTMTR)
Object type
Payload
Rocket body
Debris
Shape & HBR
Cyl, 3.5 m
Radar Cross Section
26.008 m², Large (>1 m²)

Expand to show TLE details & history
Last TLE update: 21 hours ago

TLE from 21 hours ago
0 BLOCK DM-SL R/B
1 44904U 19095B   25260.44973779 -.00000157  00000-0  00000-0 0  9994
2 44904   4.6514  77.0449 0069249 265.7220  93.7593  1.02972309 21583
Epoch: 2025-09-17T10:47Z
TLE epoch observation values (Epoch: 2025-09-17T10:47:37.345Z)
Latitude
0.00001°
Longitude
-81.21616°
Altitude
35,066.172 km
Speed
3.101 km/s
True Right ascension
05h 09m 15s
True Declination
0° 00' 00"
Sunlit
Object was in daylight at epoch
Visualization orbit readout
Latitude
Unknown
Longitude
Unknown
Altitude
Unknown
Speed
Unknown
Apparent Right ascension
Unknown
Apparent Declination
Unknown
Sunlit
N/A
Visualization observer readout
Local Sidereal Time
00:26:05
Azimuth
Unknown
Elevation
Unknown
Doppler factor
Unknown
Orbital elements
Apogee altitude
35,334.079 km
Perigee altitude
34,760.346 km
Semi-major axis
41,425.349 km
Eccentricity
0.00692
Inclination
4.6514°
RAAN
77.0449°
Arg. of periapsis
265.722°
True anomaly
94.55065°
Mean anomaly
93.7593°
Eccentric anomaly
94.15502°
Mean motion
0.25742 °/min
Orbital period
1,398.49 mins
BSTAR
0
Loading maneuver chart data...
Computing Atmospheric mass density...
Loading historical data...
Loading historical data...
Loading historical data...
Loading historical data...
Loading historical data...
Loading historical data...
Loading historical data...
Other satellites on launch #95 in the year 2019 (2019-12-24 UTC)

Documentation

Showing up to 5 results
|